Voltar ao catálogo

JILIN-1 GAOFEN 06A 15 XING

AtivoCiênciaSSO
NORAD 57026·PAYLOAD·🇨🇳 China
Este nome de satélite ainda não foi confirmado por fontes oficiais.

Lançado Jun 15, 2023 de Taiyuan Satellite Launch Center

Loading…

Próximas Passagens (próximas 24 horas)

TLE

AtualizadoSource: Space-Track

Época: Sep 14, 2026, 14:37 UTC

1 57026U 23085Y   26257.60909311  .00014330  00000-0  38375-3 0  9999
2 57026  97.5040  12.7525 0006217 103.0876 257.1063 15.38109704180551

Acompanhe JILIN-1 GAOFEN 06A 15 XING em tempo real com AllMySat

Download on the App Store